Location: Winthrop
(48.4780°N, 120.1850°W)
Time: 04:44:05
(UTC-08:00)

Vanguard 1 Rocket - Pass Details

Date: 07 December 2023
Orbit: 654 x 4218 km, 34.3° (Epoch: 24 February)

Event Time Altitude Azimuth Distance (km) Brightness Sun altitude
Rises 01:02:04 0° 185° (S) 8,381 - -60.6°
Reaches altitude 10° 01:11:34 10° 169° (S) 7,402 - -59.7°
Exits shadow 01:18:32 15° 154° (SSE) 6,783 11.6 -58.9°
Maximum altitude 01:24:42 17° 138° (SE) 6,380 11.5 -58.3°
Drops below altitude 10° 01:35:49 10° 105° (ESE) 6,254 11.8 -56.9°
Sets 01:42:22 0° 88° (E) 6,657 12.2 -56.1°
